Tracking 19638 objects as of 20-May-2019
HD Live streaming from Space Station
objects crossing your sky now

SECOR 4 (EGRS 4)

Track SECOR 4 (EGRS 4) now!
10-day predictions
SECOR 4 (EGRS 4) is classified as:


NORAD ID: 1315
Int'l Code: 1965-027B
Perigee: 1,273.2 km
Apogee: 1,323.5 km
Inclination: 90.3 °
Period: 111.4 minutes
Semi major axis: 7669 km
RCS: 0.2018 m2 (medium)
Launch date: April 3, 1965
Source: United States (US)
Launch site: AIR FORCE WESTERN TEST RANGE (AFWTR)
aabbcc
Your satellite tracking list
Your tracking list is empty




NASA's NSSDC Master Catalog

Two Line Element Set (TLE):
1  1315U 65027B   19139.53629095 -.00000047  00000-0 -19998-3 0  9994
2  1315  90.2907 314.5441 0032796 110.5226 312.1828 12.92604990553397
Source of the keplerian elements: AFSPC